Regional Weather Roundup
Issued by NWS

Home | Current Version | Previous Version | Graphics & Text | Print | Product List | Glossary On
Versions: 1 2 3 4 5 6 7 8 9 10 11 12 13 14 15 16 17 18 19 20 21 22 23 24 25 26 27 28 29 30 31 32 33 34 35 36 37 38 39 40 41 42 43 44 45 46 47 48 49 50
000
ASUS43 KMPX 212001
RWRMN
WEATHER ROUNDUP FOR MINNESOTA
NATIONAL WEATHER SERVICE TWIN CITIES/CHANHASSEN MN
300 PM CDT SUN SEP 21 2014


NOTE: "FAIR" INDICATES FEW OR NO CLOUDS BELOW 12,000 FEET WITH NO
SIGNIFICANT WEATHER AND/OR OBSTRUCTIONS TO VISIBILITY. N/A MEANS
CURRENT SKY AND/OR WEATHER CONDITIONS ARE NOT AVAILABLE.

MNZ060>063-068>070-212100-
   Twin Cities Metro

CITY           SKY/WX    TMP DP  RH WIND       PRES   REMARKS
TWIN CITIES    MOSUNNY   65  47  52 NW14G26   30.14S
ST PAUL        MOSUNNY   65  47  52 NW17      30.14S
CRYSTAL        MOSUNNY   67  45  45 N15G22    30.14R
BLAINE         MOSUNNY   66  48  52 N17G23    30.14S
LAKEVILLE      MOSUNNY   63  46  55 NW12G21   30.14R
EDEN PRAIRIE   MOSUNNY   65  48  54 NW10      30.14R
SOUTH ST PAUL  MOSUNNY   65  45  48 N12G20    30.13R
LAKE ELMO      FAIR      63  46  55 N15G21    30.14R
$$
MNZ001>005-007-008-013>017-022>024-027-028-212100-
   Northwest Minnesota

CITY           SKY/WX    TMP DP  RH WIND       PRES   REMARKS
BEMIDJI        PTSUNNY   61  49  65 W6        30.18F
HALLOCK        MOSUNNY   63  52  67 NW7       30.20F
ROSEAU         CLOUDY    61  50  67 NW10      30.19F
WARROAD        CLOUDY    61  52  72 NW6       30.18F
THIEF RVR FALL CLOUDY    59  52  77 NW8       30.21S
CROOKSTON      CLOUDY    59  52  77 NW5       30.23S
FOSSTON        CLOUDY    57  52  82 NW7       30.22S
DETROIT LAKES  CLOUDY    57  50  77 NW10      30.23F
MOORHEAD       MOSUNNY   63  54  72 N7        30.23F
PARK RAPIDS    CLOUDY    60  48  64 NW10      30.19S
MAHNOMEN       CLOUDY    58  50  77 NW9       30.22S
$$
MNZ006-009>011-018-025>026-212100-
   North Central Minnesota

CITY           SKY/WX    TMP DP  RH WIND       PRES   REMARKS
BAUDETTE       SUNNY     61  46  57 NW7       30.17S
FLAG ISLAND    PTSUNNY   57  50  77 CALM      30.15F
INTL FALLS     SUNNY     62  44  51 VRB5      30.15S
WASKISH        MOSUNNY   61  54  77 CALM      30.18S
BIG FORK       MOSUNNY   63  46  55 W6        30.17S
LONGVILLE      MOSUNNY   63  48  59 NW8       30.17F
GRAND RAPIDS   MOSUNNY   61  45  55 N8        30.16S
CRANE LAKE     SUNNY     57  43  58 NW6       30.16S
ORR            SUNNY     61  39  44 NW8       30.13S
COOK           SUNNY     61  41  48 NW8       30.15R
WALKER         FAIR      61  47  59 NW7       30.17F
$$
MNZ012-019>021-037-212100-
   Northeast Minnesota

CITY           SKY/WX    TMP DP  RH WIND       PRES   REMARKS
DULUTH         MOSUNNY   63  38  39 NW14G21   30.11S
ELY            SUNNY     57  37  47 N7G16     30.12S
HIBBING        SUNNY     64  41  42 NW14G24   30.14S
EVELETH        SUNNY     59  36  41 N10       30.13F
DULUTH HARBOR  SUNNY     55  46  71 E6        30.12F
TWO HARBORS    SUNNY     63  39  42 NW6       30.08F
SILVER BAY     SUNNY     61  43  51 NW5G16    30.08S
GRAND MARAIS     N/A     51  44  77 SW15      30.08S
G MARAIS ARPRT SUNNY     55  36  47 NW9G17    30.09R
$$
MNZ029>031-032-039>041-046>048-054>057-064-212100-
   West Central Minnesota

CITY           SKY/WX    TMP DP  RH WIND       PRES   REMARKS
FERGUS FALLS   PTSUNNY   61  46  59 N10G17    30.23F
WHEATON        MOSUNNY   63  48  59 NW12      30.23F
MORRIS         MOSUNNY   64  52  63 N16       30.21S
ALEXANDRIA     CLOUDY    60  50  69 NW10      30.23R
ELBOW LAKE     CLOUDY    59  49  67 N14       30.22S
WADENA         CLOUDY    57  48  72 NW8       30.20S
GLENWOOD       PTSUNNY   63  50  63 NW14      30.22S
APPLETON       PTSUNNY   64  48  55 NW12G18   30.21F
BENSON         PTSUNNY   64  50  59 N9        30.21F
ORTONVILLE     PTSUNNY   66  48  52 NW10G17   30.22S
MADISON        MOSUNNY   70  52  52 NW14      30.22S
WILLMAR        FAIR      64  48  55 N13G18    30.21F
$$
MNZ033>034-036-042>043-049>051-058-059-212100-
   Central Minnesota

CITY           SKY/WX    TMP DP  RH WIND       PRES   REMARKS
ST CLOUD       PTSUNNY   68  48  48 NW12      30.16S
SAUK CENTRE    CLOUDY    60  50  69 NW13      30.20S
PAYNESVILLE    PTSUNNY   59  48  66 W13G20    30.20S
AITKIN         SUNNY     64  46  52 NW6       30.15S
PINE RIVER     MOSUNNY   63  48  59 N9G16     30.20S
BRAINERD       SUNNY     62  45  53 N13       30.18S
STAPLES        CLOUDY    61  46  59 NW8       30.18F
LONG PRAIRIE   CLOUDY    59  48  67 W10G16    30.20S
LITTLE FALLS   MOSUNNY   63  45  51 NW8G16    30.17S
LITCHFIELD     PTSUNNY   64  52  63 NW9       30.19S
BUFFALO        MOSUNNY   65  46  49 NW9       30.17S
MAPLE LAKE     PTSUNNY   65  52  60 NW12      30.17S
$$
MNZ037-044-045-052-053-212100-
   East Central Minnesota

CITY           SKY/WX    TMP DP  RH WIND       PRES   REMARKS
PRINCETON      SUNNY     66  46  48 NW13      30.15S
MORA           SUNNY     63  45  51 NW6       30.17S
CAMBRIDGE      SUNNY     66  48  52 N12G18    30.13S
RUSH CITY      MOSUNNY   63  46  54 N9G16     30.14S
MOOSE LAKE     SUNNY     63  43  48 NW9       30.12S
HINCKLEY       FAIR      63  46  55 N12G17    30.14S
CLOQUET        SUNNY     63  41  45 NW8       30.12F
MCGREGOR       SUNNY     63  45  51 NW12      30.16S
$$
MNZ071>073-080-081-089-090-097-098-212100-
   Southwest Minnesota

CITY           SKY/WX    TMP DP  RH WIND       PRES   REMARKS
MONTEVIDEO     PTSUNNY   66  50  55 N14G20    30.22S
GRANITE FALLS  PTSUNNY   65  50  59 N15       30.23S
CANBY          MOSUNNY   67  50  55 N10G18    30.23F
MARSHALL       PTSUNNY   66  46  48 N17G23    30.20F
REDWOOD FALLS  CLOUDY    65  51  60 NW14G20   30.20S
OLIVIA         CLOUDY    63  48  59 N13G21    30.19S
PIPESTONE      MOSUNNY   66  43  42 N8G18     30.22F
WINDOM         PTSUNNY   66  46  48 N20G28    30.21R
WORTHINGTON    CLOUDY    64  46  52 N15G22    30.22S
JACKSON        CLOUDY    64  46  52 N12G20    30.21R
TRACY          PTSUNNY   67  50  53 N13G18    30.22S
SLAYTON        PTSUNNY   63  46  52 NW13G21   30.23S
$$
MNZ065>067-074>077-082>085-091>093-212100-
   South Central Minnesota

CITY           SKY/WX    TMP DP  RH WIND       PRES   REMARKS
MANKATO        PTSUNNY   64  45  48 NW13G21   30.16S
NEW ULM        PTSUNNY   63  52  67 NW14      30.18R
ST JAMES       CLOUDY    64  50  59 NW12G18   30.20R
FAIRMONT       CLOUDY    64  46  52 NW12      30.18S
GLENCOE        CLOUDY    64  49  58 NW13      30.17S
FARIBAULT      PTSUNNY   68  43  40 NW12G23   30.15S
OWATONNA       MOSUNNY   63  46  55 NW15      30.15S
WASECA         PTSUNNY   61  41  48 N13G18    30.17S
ALBERT LEA     PTSUNNY   63  46  55 N13G20    30.15R
$$
MNZ078>079-086>088-094>096-212100-
   Southeast Minnesota

CITY           SKY/WX    TMP DP  RH WIND       PRES   REMARKS
ROCHESTER      MOSUNNY   63  46  54 N15G25    30.13S
RED WING       MOSUNNY   66  45  45 N10G18    30.11R
STANTON        PTSUNNY   64  47  54 NW13      30.13R
DODGE CENTER   PTSUNNY   63  46  55 NW13G20   30.13S
WINONA         MOSUNNY   66  46  48 N10G21    30.08S
AUSTIN         PTSUNNY   63  48  59 NW17G24   30.13S
PRESTON        MOSUNNY   60  51  72 N14       30.11S
$$
ABBREVIATIONS USED IN REMARKS
   TC - TEMPERATURES IN CELSIUS
  WCI - WIND CHILL INDEX
   HX - HEAT INDEX
  VSB - VISIBILITY
$$


USA.gov is the U.S. government's official web portal to all federal, state and local government web resources and services.